Regional Weather Roundup
Issued by NWS Upton, NY

Current Version | Previous Version | Text Only | Print | Product List | Glossary On
Versions: 1 2 3 4 5 6 7 8 9 10 11 12 13 14 15 16 17 18 19 20 21 22 23 24 25 26 27 28 29 30 31 32 33 34 35 36 37 38 39 40 41 42 43 44 45 46 47 48 49 50
000
ASUS41 KOKX 201905
RWROKX

REGIONAL WEATHER ROUNDUP
NATIONAL WEATHER SERVICE NEW YORK NY
200 PM EST SAT DEC 20 2014

NOTE: "FAIR" INDICATES FEW OR NO CLOUDS BELOW 12,000 FEET WITH NO
SIGNIFICANT WEATHER AND/OR OBSTRUCTIONS TO VISIBILITY.

NYZ071-072-176-178-NJZ106-104-202000-
NEW YORK CITY METRO AREA


CITY           SKY/WX    TMP DP  RH WIND       PRES   REMARKS
CENTRAL PARK   CLOUDY    33  18  53 VRB3      30.27S
LAGUARDIA APRT CLOUDY    32  20  61 CALM      30.26S
KENNEDY INTL   CLOUDY    33  19  56 N5        30.27S WCI  29
NEWARK/LIBERTY CLOUDY    32  21  64 NW9       30.27S WCI  24
BRNX BOT. GARD   N/A    N/A N/A N/A W7        30.27S
TETERBORO      CLOUDY    33  19  56 NW7       30.25F WCI  27
$$

NYZ177-179-078>081-202000-
LONG ISLAND NEW YORK

CITY           SKY/WX    TMP DP  RH WIND       PRES   REMARKS
FARMINGDALE    CLOUDY    32  21  64 NW5       30.26S WCI  27
ISLIP          CLOUDY    33  22  63 NW7       30.24F WCI  27
SHIRLEY        CLOUDY    32  23  69 N7        30.26F WCI  26
WESTHAMPTON    CLOUDY    33  24  69 N7        30.26F WCI  27
MONTAUK POINT    N/A     35  28  75 N6        30.24F WCI  30
$$

NYZ052-065-067-202000-
HUDSON VALLEY

CITY           SKY/WX    TMP DP  RH WIND       PRES   REMARKS
WHITE PLAINS   CLOUDY    31  19  61 N7        30.22F WCI  24
NEWBURGH       CLOUDY    28  21  74 VRB5      30.26S WCI  23
MONTGOMERY     CLOUDY    30  20  66 NE6       30.24F WCI  24
POUGHKEEPSIE   CLOUDY    31  19  61 N6        30.27S WCI  25
ALBANY         CLOUDY    29  18  63 W3        30.29F
$$

NJZ001-105-106-008-010-013-015-019>022-104-202000-
NEW JERSEY

CITY           SKY/WX    TMP DP  RH WIND       PRES   REMARKS
NEWARK/LIBERTY CLOUDY    32  21  64 NW9       30.27S WCI  24
TETERBORO      CLOUDY    33  19  56 NW7       30.25F WCI  27
CALDWELL       CLOUDY    31  20  63 W5        30.26F WCI  26
MORRISTOWN     CLOUDY    32  23  69 N5        30.26S WCI  27
SOMERVILLE     CLOUDY    33  20  58 NE3       30.25R
SUSSEX         CLOUDY    30  20  66 NW5       30.24F WCI  25
ANDOVER          N/A     29  20  69 VRB3      30.24S
TRENTON        CLOUDY    33  20  58 VRB3      30.26S
MILLVILLE      CLOUDY    34  24  67 NE3       30.26F
ATLANTIC CITY  CLOUDY    35  22  58 NW7       30.25F WCI  29
WRIGHTSTOWN    CLOUDY    32  21  62 N3        30.24F
TOMS RIVER     CLOUDY    34  21  60 NW6       30.27F WCI  29
BELMAR         CLOUDY    34  19  55 N3        30.26R
$$

PAZ047>061-062-071-202000-
EASTERN PENNSYLVANIA

CITY           SKY/WX    TMP DP  RH WIND       PRES   REMARKS
PHILADELPHIA   CLOUDY    35  20  54 VRB5      30.28F WCI  31
ALLENTOWN      CLOUDY    34  21  59 CALM      30.25R
SCRANTON       CLOUDY    31  20  63 N5        30.20F WCI  26
$$

CTZ002-004>006-009-010-012-RIZ004-006-007-MAZ004-011-015-202000-
SOUTHERN NEW ENGLAND
 IN CT

CITY           SKY/WX    TMP DP  RH WIND       PRES   REMARKS
BRADLEY INTL   CLOUDY    31  19  61 N5        30.26S WCI  26
HARTFORD       CLOUDY    30  20  66 VRB3      30.28R
DANBURY        CLOUDY    29  18  63 NW6       30.24F WCI  23
WTRBRY/OXFORD  CLOUDY    28  18  64 NE3       30.24S
BRIDGEPORT     CLOUDY    34  22  61 N7        30.25F WCI  28
MERIDEN        CLOUDY    30  20  66 N6        30.27S WCI  24
NEW HAVEN      CLOUDY    34  21  59 NE7       30.25F WCI  28
CHESTER        MIX PCPN  32  25  74 NE5       30.24F WCI  27
GROTON         CLOUDY    32  25  75 NW6       30.25S WCI  26
WILLIMANTIC    CLOUDY    34  23  64 N5        30.25S WCI  30

 IN RI

CITY           SKY/WX    TMP DP  RH WIND       PRES   REMARKS
PROVIDENCE     CLOUDY    36  24  62 N12       30.25S WCI  28
BLOCK ISLAND   CLOUDY    37  27  65 N7        30.22S WCI  32
WESTERLY       CLOUDY    34  25  69 W3        30.25S

 IN MA

CITY           SKY/WX    TMP DP  RH WIND       PRES   REMARKS
BOSTON         CLOUDY    34  24  67 N7        30.27S WCI  28
WORCESTER      CLOUDY    31  20  63 E3        30.21S
WESTFIELD      CLOUDY    33  18  53 NW3       30.25S
PROVINCETOWN   CLOUDY    39  34  81 NE9       30.23S WCI  33
NANTUCKET      CLOUDY    42  34  73 N9        30.20F
$$

ANZ330-335-338-340-345-350-353-355-202000-
COASTAL MARINE OBSERVATIONS


STATION/POSITION TIME  SKY/WX   TEMP    WIND        PRES    VSBY  WAVE
                                AIR SEA DIR/SP/G                  HT/PER
                 (UTC)          (F)     (DEG/KT/KT) (MB)    (MI)  (FT/S)
NY HARB ENTRANCE 1900            33 46  320/  6/ 10 1025.3          1/11
4S FIRE IS       1900               46                N/A           1/11
20S FIRE ISLAND  1800            35 49              1024.9          1/ 3
23SW MTP         1900                                 N/A           1/10
HUDSON CANYON    1900            38 54  340/ 10/ 14 1023.5          2/ 4
EXECUTION ROCKS  1900            34 42  360/  6/ 10   N/A
WESTERN LI SOUND 1900            33     280/  2/  6   N/A           0
CENTRAL LI SOUND 1800            32 44  330/  6/  8   N/A           0
EASTERN LI SOUND NOT AVBL
ROBBINS REEF     1900            31     120/  2/  3 1023.7
$$


>>>>>>>>>>>>>>>>>>>>>>>>>>>> KEY <<<<<<<<<<<<<<<<<<<<<<<<<<<
>                                                          <
>     SKY/WX - SKY CONDITION/PRESENT WEATHER               <
>     TMP    - TEMPERATURE IN FAHRENHEIT                   <
>     DP     - DEWPOINT IN FAHRENHEIT                      <
>     RH     - RELATIVE HUMIDITY IN PERCENT                <
>     WIND   - DIRECTION AND SPEED IN MPH                  <
>     PRES   - MEAN SEA LEVEL PRESSURE IN INCHES OF HG     <
>     WCI    - WIND CHILL INDEX                            <
>     VSB    - VISIBILITY IN MILES                         <
>     HX     - HEAT INDEX                                  <
>     TC     - TEMPERATURE IN CELSIUS                      <
>     VRB    - VARIABLE WIND DIRECTION                     <
>                                                          <
>>>>>>>>>>>>>>>>>>>>>>>>>>>> KEY <<<<<<<<<<<<<<<<<<<<<<<<<<<





USA.gov is the U.S. government's official web portal to all federal, state and local government web resources and services.